CAPE
nan nan 0 1 1 0 0 0 0 0 0 0 nan nan nan nan nan nan nan nan nan nan nan nan nan nan 0 0 0 0 nan nan nan nan nan nan nan nan nan nan nan nan 1 7 7 11 12 11 11 5 0 nan 0 0 4 5 5 6 20 27 27 38 43 35 35 25 15 7 6 6 15 17 13 13 10 11 14 14 16 18 18 22 22 21 21 25
0 0 0 0 0 1 nan 0 0 0 nan nan nan nan nan nan 0 0 nan nan nan nan nan nan nan nan 0 1 0 0 0 0 0 0 0 nan nan nan nan nan nan nan 0 4 4 7 7 5 5 1 0 0 1 1 3 5 5 7 18 19 19 23 26 27 27 26 15 6 3 3 2 4 7 7 11 17 22 22 28 34 34 34 33 28 28 31
0 0 0 0 0 0 nan 1 0 0 nan nan nan nan nan nan 0 0 nan nan nan nan nan nan nan nan 0 1 1 1 0 1 0 0 0 nan nan nan nan nan nan nan 0 2 2 4 3 2 2 nan 0 1 1 1 1 2 2 3 4 6 6 9 11 17 17 15 12 7 2 2 0 0 1 1 11 22 31 31 29 39 39 34 36 35 35 38
0 0 0 nan nan 0 0 1 0 0 0 nan nan nan nan nan nan nan nan nan nan nan nan nan nan nan 0 nan 0 0 0 0 1 1 0 0 nan nan nan nan nan nan nan 0 0 2 1 1 1 nan 2 1 2 2 1 1 1 2 2 3 3 5 4 4 4 6 7 6 4 4 0 nan 0 0 5 17 22 22 23 29 29 35 41 43 43 47
1 0 0 nan nan 0 0 2 1 1 1 1 0 0 nan nan 0 0 0 nan nan nan nan nan nan nan nan 0 0 0 0 0 1 1 1 0 0 0 nan nan nan nan nan nan nan 3 0 nan nan 0 2 3 4 4 2 1 1 2 3 4 4 5 3 3 3 3 3 5 7 7 8 5 4 4 4 10 17 17 24 24 24 29 31 43 43 52
0 0 0 nan nan 0 1 1 1 1 1 1 0 0 0 0 1 1 1 0 0 0 0 nan nan nan 0 0 nan nan nan 0 1 1 1 0 0 0 nan nan nan nan nan 0 0 3 1 0 0 0 4 6 5 5 2 1 1 1 1 2 2 2 2 3 3 2 2 2 3 3 10 15 12 12 8 9 16 16 24 27 27 26 28 31 31 42
nan nan nan 0 0 0 1 0 1 1 0 0 0 0 0 0 0 0 1 0 0 0 0 0 0 0 0 nan nan nan nan nan 1 1 1 1 0 0 nan nan nan nan nan 0 0 7 2 1 1 3 6 8 5 5 2 0 0 0 0 1 1 2 2 3 3 4 3 1 1 1 7 15 14 14 12 11 15 15 21 25 25 24 20 17 17 26
nan nan nan nan nan 0 0 0 1 1 1 1 0 0 0 0 1 1 1 0 0 nan 0 0 0 0 0 nan nan nan nan nan nan nan 0 1 1 1 0 0 0 nan nan 0 0 4 4 2 2 4 6 6 3 3 1 nan nan nan nan nan nan 0 1 2 2 1 nan nan nan nan nan nan 0 0 2 3 4 4 7 17 17 19 21 13 13 13
nan nan nan nan nan nan nan 0 1 1 1 1 1 1 0 1 1 1 1 0 0 0 0 0 0 0 0 nan nan nan nan nan 0 0 nan 0 2 2 1 0 0 0 nan nan nan nan 3 1 1 3 6 5 2 2 nan nan nan nan nan nan nan nan 0 0 0 0 nan nan nan nan nan nan nan nan nan nan nan nan nan nan nan 5 10 10 10 10
nan nan nan nan nan nan nan nan 1 1 1 1 1 1 1 0 1 1 0 0 0 1 0 0 0 0 0 nan nan nan nan nan 0 0 0 nan 1 1 0 0 0 1 0 nan nan nan 1 2 2 3 5 3 nan nan nan nan nan nan nan nan nan nan nan nan nan nan nan nan nan nan nan nan nan nan nan nan nan nan nan nan nan nan nan 0 0 2
nan nan nan nan nan nan nan nan 0 0 1 0 0 0 0 0 0 0 nan 0 0 0 0 0 0 1 0 nan nan nan 0 0 nan nan 0 0 0 0 nan nan nan 0 1 1 1 nan 0 1 1 2 2 0 nan nan nan nan nan nan nan nan nan nan nan nan nan nan nan nan nan nan nan nan nan nan nan nan nan nan nan nan nan nan nan nan nan nan
nan nan nan nan nan nan nan 0 0 0 0 0 nan nan 0 nan nan nan nan nan nan 0 0 1 1 1 0 0 0 0 0 0 0 0 0 0 0 0 nan nan nan 0 1 1 1 nan nan 0 0 0 nan nan nan nan nan nan nan nan nan nan nan nan nan nan nan nan nan nan nan nan nan nan nan nan nan nan nan nan nan nan nan nan nan nan nan nan
nan nan nan nan nan nan nan nan nan nan nan nan nan nan nan 0 0 0 nan nan nan 0 0 0 0 0 1 1 0 0 0 0 0 0 0 0 0 0 0 0 0 0 1 3 3 5 nan nan nan nan nan nan nan nan nan nan nan nan nan nan nan nan nan nan nan nan nan nan nan nan nan nan nan nan nan nan nan nan nan nan nan nan nan nan nan nan
nan nan nan nan nan nan nan nan nan nan nan nan nan nan nan nan nan nan nan nan nan 0 0 0 0 0 0 0 1 1 1 0 0 0 0 0 0 0 0 nan nan nan nan nan nan nan nan nan nan nan nan 0 nan nan nan nan nan nan nan nan nan nan nan nan nan nan nan nan nan nan nan nan nan nan nan nan nan nan nan nan nan nan nan nan nan nan
nan nan nan nan nan nan nan nan nan nan nan nan nan nan nan nan nan nan nan nan nan 0 0 0 0 0 0 0 0 0 1 1 0 0 0 0 0 0 nan nan nan nan nan nan nan nan nan nan nan nan nan 1 1 1 nan nan nan nan nan nan nan nan nan nan nan nan nan nan nan nan nan nan nan nan nan nan nan nan nan nan nan nan nan nan nan nan
nan nan nan nan nan nan nan nan nan nan nan nan nan nan nan nan nan nan nan nan nan nan nan nan nan 0 0 0 0 0 1 1 0 0 0 0 0 0 0 nan nan nan nan nan nan nan nan nan nan nan nan nan nan nan nan 1 1 0 nan nan nan nan nan nan nan nan nan nan nan nan nan nan nan nan nan nan nan nan nan nan nan nan nan nan nan nan
nan nan nan nan nan nan nan nan nan nan nan nan nan nan nan nan nan nan nan nan nan nan nan nan nan nan 0 1 1 1 0 0 0 0 0 0 0 0 0 nan nan nan nan nan nan nan nan nan nan nan nan 0 nan nan nan 1 1 1 0 nan nan nan nan 0 0 nan nan nan nan nan nan nan nan nan nan nan nan nan nan nan nan nan nan nan nan nan
nan nan nan nan nan nan nan nan nan nan nan nan nan nan nan nan nan nan nan nan nan nan nan nan nan nan 0 0 0 0 nan 1 0 0 0 0 0 0 nan nan nan nan nan nan nan 0 nan nan nan nan nan 0 0 0 2 3 3 4 3 0 0 0 0 0 0 0 nan nan nan nan nan nan nan nan nan nan nan nan nan nan nan nan nan nan nan nan
nan nan nan nan nan nan nan nan nan nan nan nan nan nan nan nan nan nan nan nan nan nan nan nan nan nan 0 0 0 0 0 0 1 1 0 0 0 0 nan nan nan nan nan 0 0 0 nan nan nan nan nan nan 1 1 3 5 5 6 3 1 1 1 1 1 1 0 nan nan nan nan nan nan nan nan nan nan nan nan nan nan nan nan nan nan nan nan
nan nan nan nan nan nan nan nan nan nan nan nan nan nan nan nan nan nan nan nan nan nan nan nan nan 0 0 0 0 0 nan 1 0 0 0 0 0 0 0 0 0 nan 0 0 0 nan nan nan nan 0 0 nan 2 2 3 5 5 5 4 1 1 1 1 1 1 nan nan nan nan nan nan nan nan nan nan nan nan nan nan nan nan nan nan nan nan nan
nan nan nan nan nan nan nan nan nan nan nan nan nan nan nan nan nan nan nan nan nan nan 0 0 0 0 0 0 nan nan nan 0 0 0 0 0 0 0 0 nan nan nan 0 0 0 0 nan nan nan nan nan 0 3 3 6 7 7 5 4 2 2 1 0 0 0 nan nan nan nan nan nan nan nan nan nan nan nan nan nan nan nan nan nan nan nan nan
nan nan nan nan nan nan nan nan nan nan nan nan nan nan nan nan nan nan nan nan nan nan 0 0 0 0 nan nan nan nan nan 0 0 0 0 0 0 0 0 0 0 0 0 0 0 0 0 nan nan nan 0 1 1 1 4 5 5 7 5 1 1 0 0 nan nan nan 0 nan nan nan nan nan nan nan nan nan nan nan nan nan nan nan nan nan nan nan
nan nan nan nan nan nan nan nan nan nan nan nan nan nan nan nan nan nan nan nan nan nan 0 0 0 nan nan nan nan nan nan nan 0 0 0 0 1 1 0 0 0 0 0 1 1 0 0 nan nan nan 1 2 0 0 nan 0 0 4 4 4 4 4 1 5 5 2 3 2 1 1 1 nan nan nan nan nan nan nan nan nan nan nan nan nan nan nan
nan nan nan nan nan nan nan nan nan nan nan nan nan nan nan nan nan nan nan nan nan nan 0 0 0 0 nan nan nan nan nan nan nan nan 0 1 1 1 nan nan nan 0 0 1 1 0 0 0 0 0 0 1 0 0 0 0 0 0 nan 0 0 0 0 0 0 0 2 3 5 5 5 7 4 4 1 0 0 0 nan nan nan nan nan nan nan nan
nan nan nan nan nan nan nan nan nan nan nan nan nan nan nan nan nan nan nan nan nan nan 0 0 0 0 nan 0 nan nan nan nan nan nan 0 1 1 1 nan nan nan 0 1 0 0 0 1 1 1 0 0 nan 0 0 nan 0 0 0 0 1 1 2 1 1 1 1 1 1 0 0 1 8 6 6 7 8 5 5 2 0 0 0 nan nan nan nan
nan nan nan nan nan nan nan nan nan nan nan nan nan nan nan nan nan nan nan nan nan nan 1 1 1 0 nan nan nan nan nan nan nan nan 0 1 1 1 nan nan nan nan 0 nan nan nan 0 0 0 0 0 0 0 0 0 nan nan nan nan 0 0 0 1 0 0 0 0 0 1 1 1 1 1 1 2 6 10 10 11 6 6 4 1 1 1 0
0 0 1 1 1 1 1 2 2 2 1 0 nan nan nan nan nan nan nan nan nan nan 0 0 0 0 0 nan nan nan nan nan nan nan nan 1 1 1 nan nan nan nan nan nan nan nan 0 0 0 nan nan nan nan nan 0 nan nan nan nan nan nan 0 0 0 0 nan nan 0 0 0 0 1 0 0 1 1 1 1 5 10 10 11 8 6 6 3
1 1 2 1 1 1 2 3 2 2 1 1 1 1 nan nan nan nan nan nan nan nan nan 0 0 0 0 0 0 0 nan nan nan nan nan 0 0 0 nan nan nan nan nan nan nan nan nan nan nan nan nan nan nan nan nan nan nan nan nan nan nan nan nan nan nan nan nan nan nan nan nan nan nan nan nan nan 0 0 1 2 2 5 10 14 14 9
1 1 1 2 2 2 3 3 2 2 2 1 0 0 nan nan nan nan nan nan nan nan nan nan nan 0 0 0 nan nan nan nan nan nan nan 0 1 1 nan nan nan nan nan nan nan nan nan nan nan nan nan nan nan nan nan nan nan nan nan nan nan nan nan nan nan nan nan nan nan nan nan nan nan nan nan nan nan nan nan 0 0 1 12 6 6 nan
0 1 1 3 3 3 3 2 3 3 3 2 0 0 nan nan nan nan nan nan nan nan nan nan nan 0 nan nan nan nan nan nan nan nan nan 0 0 0 nan nan nan nan nan nan nan nan nan nan nan nan nan nan nan nan nan nan nan nan nan nan nan nan nan nan nan nan nan nan nan nan nan nan nan nan nan nan nan nan nan nan nan 1 9 nan nan nan
nan nan nan nan nan nan nan 0 3 3 6 4 nan nan nan nan nan nan nan nan nan nan nan nan nan nan nan nan 0 0 nan nan nan nan nan 0 0 0 nan nan nan nan nan nan nan nan nan nan nan nan nan nan nan nan nan nan nan nan nan nan nan nan nan nan nan nan nan nan nan nan nan nan nan nan nan nan nan nan nan nan nan nan 1 nan nan nan
nan nan nan nan nan nan nan nan nan nan nan nan nan nan nan nan nan nan nan nan nan nan nan nan nan nan nan nan nan nan nan nan nan nan nan nan nan nan nan nan nan nan nan nan nan nan nan nan nan nan nan nan nan nan nan nan nan nan nan nan nan nan nan nan nan nan nan nan nan nan nan nan nan nan nan nan nan nan nan nan nan nan nan 0 0 nan
nan nan nan nan nan nan nan nan nan nan nan nan nan nan nan nan nan nan nan nan nan nan nan nan nan nan nan nan nan nan nan nan 0 0 nan nan nan nan nan nan nan nan nan nan nan nan nan nan nan nan nan nan nan nan nan nan nan nan nan nan nan nan nan nan nan nan nan nan nan nan nan nan nan nan nan nan nan nan nan nan nan nan nan nan nan nan
nan nan nan nan nan nan nan nan nan nan nan nan nan nan nan nan nan nan nan nan nan nan nan nan nan nan nan nan nan nan nan nan 2 2 0 nan nan nan nan nan nan nan nan nan nan nan nan nan nan nan nan nan nan nan nan nan nan nan nan nan nan nan nan nan nan nan nan nan nan nan nan nan nan nan nan nan nan nan nan nan nan nan nan nan nan nan
nan nan nan nan nan nan nan nan nan nan nan nan nan nan nan nan nan nan nan nan nan nan nan nan nan nan nan nan nan nan nan nan 0 0 1 nan nan nan nan nan nan nan nan nan nan nan nan nan nan nan nan nan nan nan nan nan nan nan nan nan nan nan nan nan nan nan nan nan nan nan nan nan nan nan nan nan nan nan nan nan nan nan nan nan nan nan
nan nan nan nan nan nan nan nan nan nan nan nan nan nan nan nan nan nan nan nan nan nan nan nan nan nan nan nan nan nan nan nan nan nan nan nan nan nan nan nan nan nan nan nan nan nan nan nan nan nan nan nan nan nan nan nan nan nan nan nan nan nan nan nan nan nan nan nan nan nan nan nan nan nan nan nan nan nan nan nan nan nan nan nan nan nan
nan nan nan nan nan nan nan nan nan nan nan nan nan nan nan nan nan nan nan nan nan nan nan nan nan nan nan nan nan nan nan nan nan nan nan nan nan nan nan nan nan nan nan nan nan nan nan nan nan nan nan nan nan nan nan nan nan nan nan nan nan nan nan nan nan nan nan nan nan nan nan nan nan nan nan nan nan nan nan nan nan nan nan nan nan nan
nan nan nan nan nan nan nan nan nan nan nan nan nan nan nan nan nan nan nan nan nan nan nan nan nan nan nan nan nan nan nan nan nan nan nan nan nan nan nan nan nan nan nan nan nan nan nan nan nan nan nan nan nan nan nan nan nan nan nan nan nan nan nan nan nan nan nan nan nan nan nan nan nan nan nan nan nan nan nan nan nan nan nan nan nan nan
nan nan nan nan nan nan nan nan nan nan nan nan nan nan nan nan nan nan nan nan nan nan nan nan nan nan nan nan nan nan nan nan nan nan nan nan nan nan nan nan nan nan nan nan nan nan nan nan nan nan nan nan nan nan nan nan nan nan nan nan nan nan nan nan nan nan nan nan nan nan nan nan nan nan nan nan nan nan nan nan nan nan nan nan nan nan
nan nan nan nan nan nan nan nan nan nan nan nan nan nan nan nan nan nan nan nan nan nan nan nan nan nan nan nan nan nan nan nan nan nan nan nan nan nan nan nan nan nan nan nan nan nan nan nan nan nan nan nan nan nan nan nan nan nan nan nan nan nan nan nan nan nan nan nan nan nan nan nan nan nan nan nan nan nan nan nan nan nan nan nan nan nan
nan nan nan nan nan nan nan nan nan nan nan nan nan nan nan nan nan nan nan nan nan nan nan nan nan nan nan nan nan nan nan nan nan nan nan nan nan nan nan nan nan nan nan nan nan nan nan nan nan nan nan nan nan nan nan nan nan nan nan nan nan nan nan nan nan nan nan nan nan nan nan nan nan nan nan nan nan nan nan nan nan nan nan nan nan nan
nan nan nan nan nan nan nan nan nan nan nan nan nan nan nan nan nan nan nan nan nan nan nan nan nan nan nan nan nan nan nan nan nan nan nan nan nan nan nan nan nan nan nan nan nan nan nan nan nan nan nan nan nan nan nan nan nan nan nan nan nan nan nan nan nan nan nan nan nan nan nan nan nan nan nan nan nan nan nan nan nan nan nan nan nan nan
nan nan nan nan nan nan nan nan nan nan nan nan nan nan nan nan nan nan nan nan nan nan nan nan nan nan nan nan nan nan nan nan nan nan nan nan nan nan nan nan nan nan nan nan nan nan nan nan nan nan nan nan nan nan nan nan nan nan nan nan nan nan nan nan nan nan nan nan nan nan nan nan nan nan nan nan nan nan nan nan nan nan nan nan nan nan
nan nan nan nan nan nan nan nan nan nan nan nan nan nan nan nan nan nan nan nan nan nan nan nan nan nan nan nan nan nan nan nan nan nan nan nan nan nan nan nan nan nan nan nan nan nan nan nan nan nan nan nan nan nan nan nan nan nan nan nan nan nan nan nan nan nan nan nan nan nan nan nan nan nan nan nan nan nan nan nan nan nan nan nan nan nan
nan nan nan nan nan nan nan nan nan nan nan nan nan nan nan nan nan nan nan nan nan nan nan nan nan nan nan nan nan nan nan nan nan nan nan 0 1 1 nan nan nan nan nan nan nan nan nan nan nan nan nan nan nan nan nan nan nan nan nan nan nan nan nan nan nan nan nan nan nan nan nan nan nan nan nan nan nan nan nan nan nan nan nan nan nan nan
nan nan nan nan nan nan nan nan nan nan nan nan nan nan nan nan nan nan nan nan nan nan nan nan nan nan nan nan nan nan nan nan nan nan nan nan nan nan nan nan nan nan nan nan nan nan nan nan nan nan nan nan nan nan nan nan nan nan nan nan nan nan nan nan nan nan nan nan nan nan nan nan nan nan nan nan nan nan nan nan nan nan nan nan nan nan
nan nan nan nan nan nan nan nan nan nan nan nan nan nan nan nan nan nan nan nan nan nan nan nan nan nan nan nan nan nan nan nan nan nan nan nan nan nan nan nan nan nan nan nan nan nan nan nan nan nan nan nan nan nan nan nan nan nan nan nan nan nan nan nan nan nan nan nan nan nan nan nan nan nan nan nan nan nan nan nan nan nan nan nan nan nan
nan nan nan nan nan nan nan nan nan nan nan nan nan nan nan nan nan nan nan nan nan nan nan nan nan nan nan nan nan nan nan nan nan nan nan nan nan nan nan nan nan nan nan nan nan nan nan nan nan nan nan nan nan nan nan nan nan nan nan nan nan nan nan nan nan nan nan nan nan nan nan nan nan nan nan nan nan nan nan nan nan nan nan nan nan nan
nan nan nan nan nan nan nan nan nan nan nan nan nan nan nan nan nan nan nan nan nan nan nan nan nan nan nan nan nan nan nan nan nan nan nan nan nan nan nan nan nan nan nan nan nan nan nan nan nan nan nan nan nan nan nan nan nan nan nan nan nan nan nan nan nan nan nan nan nan nan nan nan nan nan nan nan nan nan nan nan nan nan nan nan nan nan
nan nan nan nan nan nan nan nan nan nan nan nan nan nan nan nan nan nan nan nan nan nan nan nan nan nan nan nan nan nan 0 nan nan nan nan nan nan nan nan nan nan nan nan nan nan nan nan nan nan nan nan nan nan nan nan nan nan nan nan nan nan nan nan nan nan nan nan nan nan nan nan nan nan nan nan nan nan nan nan nan nan nan nan nan nan nan
1 nan nan nan nan nan nan nan nan nan nan nan nan nan nan nan nan nan nan nan nan nan nan nan nan nan nan nan 0 0 0 nan nan nan nan nan nan nan nan nan nan nan nan nan nan nan nan nan nan nan nan 1 nan nan nan nan nan nan nan nan nan nan nan nan nan nan nan nan nan nan nan nan nan nan nan nan nan nan nan nan nan nan nan nan nan nan
CIN
nan nan -0 -0 -0 -0 -0 -0 -0 -0 -0 -0 nan nan nan nan nan nan nan nan nan nan nan nan nan nan -0 -0 -0 -0 nan nan nan nan nan nan nan nan nan nan nan nan -0 -1 -1 -2 -1 -1 -1 -1 -1 nan -12 -12 -1 -0 -0 -0 -1 -0 -0 -0 -0 -0 -0 -0 -0 -0 -0 -0 -0 -0 -0 -0 -0 -0 -0 -0 -0 -0 -0 -0 -0 -0 -0 -0
-0 -0 -0 -0 -0 -0 nan -0 -0 -0 nan nan nan nan nan nan -0 -0 nan nan nan nan nan nan nan nan -0 -0 -0 -0 -0 -0 -0 -0 -0 nan nan nan nan nan nan nan -0 -0 -0 -3 -4 -4 -4 -6 -0 -0 -0 -0 -0 -0 -0 -1 -0 -0 -0 -0 -0 -0 -0 -0 -0 -0 -0 -0 -0 -0 -0 -0 -0 -0 -0 -0 -0 -0 -0 -0 -0 -0 -0 -0
-0 -0 -0 -0 -0 -0 nan -0 -0 -0 nan nan nan nan nan nan -0 -0 nan nan nan nan nan nan nan nan -0 -0 -0 -0 -0 -0 -0 -0 -0 nan nan nan nan nan nan nan -0 -4 -4 -7 -6 -8 -8 nan -0 -0 -0 -0 -0 -0 -0 -0 -0 -0 -0 -0 -0 -0 -0 -0 -0 -0 -0 -0 -0 -22 -5 -5 -0 -0 -0 -0 -0 -0 -0 -0 -0 -0 -0 -0
-0 -0 -0 nan nan -0 -0 -0 -0 -0 -0 nan nan nan nan nan nan nan nan nan nan nan nan nan nan nan -0 nan -0 -0 -0 -0 -0 -0 -0 -0 nan nan nan nan nan nan nan -7 -7 -7 -7 -8 -8 nan -0 -0 -0 -0 -0 -0 -0 -0 -0 -1 -1 -1 -0 -0 -0 -0 -0 -0 -1 -1 -2 nan -1 -1 -0 -0 -0 -0 -0 -0 -0 -0 -0 -0 -0 -0
-0 -0 -0 nan nan -0 -0 -0 -0 -0 -0 -0 -0 -0 nan nan -0 -0 -0 nan nan nan nan nan nan nan nan -0 -0 -0 -0 -0 -0 -0 -0 -0 -0 -0 nan nan nan nan nan nan nan -5 -5 nan nan -0 -0 -0 -0 -0 -0 -0 -0 -0 -1 -1 -1 -1 -0 -0 -0 -0 -0 -1 -1 -1 -2 -1 -0 -0 -0 -0 -0 -0 -0 -1 -1 -0 -0 -0 -0 -0
-0 -1 -1 nan nan -0 -0 -0 -0 -0 -0 -0 -0 -0 -0 -0 -0 -0 -0 -0 -0 -0 -0 nan nan nan -0 -0 nan nan nan -0 -0 -0 -0 -0 -0 -0 nan nan nan nan nan -0 -0 -2 -0 -1 -1 -0 -0 -0 -0 -0 -0 -0 -0 -1 -1 -0 -0 -0 -0 -0 -0 -0 -1 -2 -2 -2 -2 -1 -1 -1 -0 -0 -0 -0 -0 -0 -0 -0 -0 -0 -0 -0
nan nan nan -0 -0 -0 -0 -0 -0 -0 -0 -0 -0 -0 -0 -0 -0 -0 -0 -0 -0 -0 -0 -0 -0 -0 -0 nan nan nan nan nan -0 -0 -0 -0 -0 -0 nan nan nan nan nan -8 -8 -0 -1 -1 -1 -0 -0 -0 -0 -0 -0 -1 -1 -1 -1 -0 -0 -0 -1 -2 -2 -2 -3 -4 -2 -2 -1 -1 -1 -1 -1 -1 -0 -0 -0 -0 -0 -0 -0 -0 -0 -0
nan nan nan nan nan -0 -0 -0 -0 -0 -0 -0 -0 -0 -0 -0 -0 -0 -0 -0 -0 nan -0 -0 -0 -0 -0 nan nan nan nan nan nan nan -0 -0 -0 -0 -0 -0 -0 nan nan -0 -0 -3 -0 -0 -0 -0 -0 -0 -0 -0 -0 nan nan nan nan nan nan -2 -1 -0 -0 -3 nan nan nan nan nan nan -10 -10 -4 -6 -4 -4 -0 -0 -0 -0 -0 -0 -0 -0
nan nan nan nan nan nan nan -0 -0 -0 -0 -0 -0 -0 -0 -0 -0 -0 -0 -0 -0 -0 -0 -0 -0 -0 -0 nan nan nan nan nan -0 -0 nan -0 -0 -0 -0 -0 -0 -0 nan nan nan nan -0 -0 -0 -0 -0 -0 -0 -0 nan nan nan nan nan nan nan nan -3 -3 -3 -6 nan nan nan nan nan nan nan nan nan nan nan nan nan nan nan -0 -0 -0 -0 -0
nan nan nan nan nan nan nan nan -0 -0 -0 -0 -0 -0 -0 -0 -0 -0 -0 -0 -0 -0 -0 -0 -0 -0 -0 nan nan nan nan nan -0 -0 -0 nan -0 -0 -0 -0 -0 -0 -0 nan nan nan -2 -0 -0 -0 -0 -0 nan nan nan nan nan nan nan nan nan nan nan nan nan nan nan nan nan nan nan nan nan nan nan nan nan nan nan nan nan nan nan -0 -0 -0
nan nan nan nan nan nan nan nan -0 -0 -0 -0 -0 -0 -0 -1 -0 -0 nan -0 -0 -0 -0 -0 -0 -0 -0 nan nan nan -0 -0 nan nan -0 -0 -0 -0 nan nan nan -0 -0 -0 -0 nan -5 -0 -0 -1 -1 -0 nan nan nan nan nan nan nan nan nan nan nan nan nan nan nan nan nan nan nan nan nan nan nan nan nan nan nan nan nan nan nan nan nan nan
nan nan nan nan nan nan nan -0 -0 -0 -0 -0 nan nan -0 nan nan nan nan nan nan -0 -0 -0 -0 -0 -0 -0 -0 -0 -0 -0 -0 -0 -0 -0 -0 -0 nan nan nan -0 -0 -0 -0 nan nan -1 -1 -1 nan nan nan nan nan nan nan nan nan nan nan nan nan nan nan nan nan nan nan nan nan nan nan nan nan nan nan nan nan nan nan nan nan nan nan nan
nan nan nan nan nan nan nan nan nan nan nan nan nan nan nan -0 -0 -0 nan nan nan -0 -0 -0 -0 -0 -0 -0 -0 -0 -0 -0 -0 -0 -0 -0 -0 -0 -0 -0 -0 -0 -0 -0 -0 -0 nan nan nan nan nan nan nan nan nan nan nan nan nan nan nan nan nan nan nan nan nan nan nan nan nan nan nan nan nan nan nan nan nan nan nan nan nan nan nan nan
nan nan nan nan nan nan nan nan nan nan nan nan nan nan nan nan nan nan nan nan nan -0 -0 -0 -0 -0 -0 -0 -0 -0 -0 -0 -0 -0 -0 -0 -0 -0 -0 nan nan nan nan nan nan nan nan nan nan nan nan -0 nan nan nan nan nan nan nan nan nan nan nan nan nan nan nan nan nan nan nan nan nan nan nan nan nan nan nan nan nan nan nan nan nan nan
nan nan nan nan nan nan nan nan nan nan nan nan nan nan nan nan nan nan nan nan nan -0 -0 -0 -0 -0 -0 -0 -0 -0 -0 -0 -0 -0 -0 -0 -0 -0 nan nan nan nan nan nan nan nan nan nan nan nan nan -0 -0 -0 nan nan nan nan nan nan nan nan nan nan nan nan nan nan nan nan nan nan nan nan nan nan nan nan nan nan nan nan nan nan nan nan
nan nan nan nan nan nan nan nan nan nan nan nan nan nan nan nan nan nan nan nan nan nan nan nan nan -0 -0 -0 -0 -0 -0 -0 -0 -0 -0 -0 -0 -0 -0 nan nan nan nan nan nan nan nan nan nan nan nan nan nan nan nan -0 -0 -0 nan nan nan nan nan nan nan nan nan nan nan nan nan nan nan nan nan nan nan nan nan nan nan nan nan nan nan nan
nan nan nan nan nan nan nan nan nan nan nan nan nan nan nan nan nan nan nan nan nan nan nan nan nan nan -0 -0 -0 -0 -0 -0 -0 -0 -0 -0 -0 -0 -0 nan nan nan nan nan nan nan nan nan nan nan nan -0 nan nan nan -0 -0 -0 -0 nan nan nan nan -4 -4 nan nan nan nan nan nan nan nan nan nan nan nan nan nan nan nan nan nan nan nan nan
nan nan nan nan nan nan nan nan nan nan nan nan nan nan nan nan nan nan nan nan nan nan nan nan nan nan -0 -0 -0 -0 nan -0 -0 -0 -0 -0 -0 -0 nan nan nan nan nan nan nan -0 nan nan nan nan nan -0 -0 -0 -0 -0 -0 -0 -0 -1 -1 -3 -4 -3 -3 -3 nan nan nan nan nan nan nan nan nan nan nan nan nan nan nan nan nan nan nan nan
nan nan nan nan nan nan nan nan nan nan nan nan nan nan nan nan nan nan nan nan nan nan nan nan nan nan -0 -0 -0 -0 -0 -0 -0 -0 -0 -0 -0 -0 nan nan nan nan nan -0 -0 -0 nan nan nan nan nan nan -0 -0 -0 -0 -0 -0 -0 -1 -1 -2 -2 -2 -2 -2 nan nan nan nan nan nan nan nan nan nan nan nan nan nan nan nan nan nan nan nan
nan nan nan nan nan nan nan nan nan nan nan nan nan nan nan nan nan nan nan nan nan nan nan nan nan -0 -0 -0 -0 -0 nan -0 -0 -0 -0 -0 -0 -0 -0 -0 -0 nan -0 -0 -0 nan nan nan nan -0 -0 nan -0 -0 -0 -0 -0 -0 -0 -0 -0 -1 -1 -1 -1 nan nan nan nan nan nan nan nan nan nan nan nan nan nan nan nan nan nan nan nan nan
nan nan nan nan nan nan nan nan nan nan nan nan nan nan nan nan nan nan nan nan nan nan -0 -0 -0 -0 -0 -0 nan nan nan -0 -0 -0 -0 -0 -0 -0 -0 nan nan nan -0 -0 -0 -0 nan nan nan nan nan -1 -0 -0 -0 -0 -0 -0 -0 -0 -0 -1 -0 -0 -0 nan nan nan nan nan nan nan nan nan nan nan nan nan nan nan nan nan nan nan nan nan
nan nan nan nan nan nan nan nan nan nan nan nan nan nan nan nan nan nan nan nan nan nan -0 -0 -0 -0 nan nan nan nan nan -0 -0 -0 -0 -0 -0 -0 -0 -0 -0 -0 -0 -0 -0 -0 -0 nan nan nan -0 -0 -1 -1 -0 -1 -1 -0 -0 -0 -0 -0 -0 nan nan nan -0 nan nan nan nan nan nan nan nan nan nan nan nan nan nan nan nan nan nan nan
nan nan nan nan nan nan nan nan nan nan nan nan nan nan nan nan nan nan nan nan nan nan -0 -0 -0 nan nan nan nan nan nan nan -0 -0 -0 -0 -0 -0 -0 -0 -0 -0 -0 -0 -0 -0 -0 nan nan nan -0 -0 -0 -0 nan -0 -0 -1 -1 -1 -1 -0 -1 -0 -0 -1 -0 -0 -0 -0 -0 nan nan nan nan nan nan nan nan nan nan nan nan nan nan nan
nan nan nan nan nan nan nan nan nan nan nan nan nan nan nan nan nan nan nan nan nan nan -0 -0 -0 -0 nan nan nan nan nan nan nan nan -0 -0 -0 -0 nan nan nan -0 -0 -0 -0 -0 -0 -0 -0 -0 -0 -0 -0 -0 -0 -0 -0 -0 nan -0 -0 -0 -0 -0 -0 -4 -0 -1 -1 -1 -1 -0 -0 -0 -1 -3 -4 -4 nan nan nan nan nan nan nan nan
nan nan nan nan nan nan nan nan nan nan nan nan nan nan nan nan nan nan nan nan nan nan -0 -0 -0 -0 nan -0 nan nan nan nan nan nan -0 -0 -0 -0 nan nan nan -0 -0 -0 -0 -0 -0 -0 -0 -0 -0 nan -0 -0 nan -0 -0 -0 -0 -0 -0 -0 -0 -0 -0 -0 -0 -0 -0 -0 -0 -0 -1 -1 -1 -0 -0 -0 -0 -1 -1 -1 nan nan nan nan
nan nan nan nan nan nan nan nan nan nan nan nan nan nan nan nan nan nan nan nan nan nan -0 -0 -0 -0 nan nan nan nan nan nan nan nan -0 -0 -0 -0 nan nan nan nan -0 nan nan nan -0 -0 -0 -0 -0 -0 -0 -0 -0 nan nan nan nan -0 -0 -0 -0 -0 -0 -0 -0 -0 -0 -0 -0 -0 -0 -0 -0 -0 -0 -0 -0 -0 -0 -0 -0 -1 -1 -0
-0 -0 -0 -0 -0 -0 -0 -0 -0 -0 -0 -0 nan nan nan nan nan nan nan nan nan nan -0 -0 -0 -0 -0 nan nan nan nan nan nan nan nan -0 -0 -0 nan nan nan nan nan nan nan nan -0 -0 -0 nan nan nan nan nan -0 nan nan nan nan nan nan -0 -0 -0 -0 nan nan -0 -0 -0 -0 -0 -0 -0 -0 -0 -0 -0 -0 -0 -0 -0 -0 -0 -0 -0
-0 -0 -0 -0 -0 -0 -0 -0 -0 -0 -0 -0 -0 -0 nan nan nan nan nan nan nan nan nan -0 -0 -0 -0 -0 -0 -0 nan nan nan nan nan -0 -0 -0 nan nan nan nan nan nan nan nan nan nan nan nan nan nan nan nan nan nan nan nan nan nan nan nan nan nan nan nan nan nan nan nan nan nan nan nan nan nan -0 -0 -0 -0 -0 -0 -0 -0 -0 -0
-0 -0 -0 -0 -0 -0 -0 -0 -0 -0 -0 -0 -0 -0 nan nan nan nan nan nan nan nan nan nan nan -0 -0 -0 nan nan nan nan nan nan nan -0 -0 -0 nan nan nan nan nan nan nan nan nan nan nan nan nan nan nan nan nan nan nan nan nan nan nan nan nan nan nan nan nan nan nan nan nan nan nan nan nan nan nan nan nan -0 -0 -0 -0 -0 -0 nan
-0 -0 -0 -0 -0 -0 -0 -0 -0 -0 -0 -0 -0 -0 nan nan nan nan nan nan nan nan nan nan nan -0 nan nan nan nan nan nan nan nan nan -0 -0 -0 nan nan nan nan nan nan nan nan nan nan nan nan nan nan nan nan nan nan nan nan nan nan nan nan nan nan nan nan nan nan nan nan nan nan nan nan nan nan nan nan nan nan nan -0 -0 nan nan nan
nan nan nan nan nan nan nan -1 -0 -0 -0 -0 nan nan nan nan nan nan nan nan nan nan nan nan nan nan nan nan -0 -0 nan nan nan nan nan -0 -0 -0 nan nan nan nan nan nan nan nan nan nan nan nan nan nan nan nan nan nan nan nan nan nan nan nan nan nan nan nan nan nan nan nan nan nan nan nan nan nan nan nan nan nan nan nan -0 nan nan nan
nan nan nan nan nan nan nan nan nan nan nan nan nan nan nan nan nan nan nan nan nan nan nan nan nan nan nan nan nan nan nan nan nan nan nan nan nan nan nan nan nan nan nan nan nan nan nan nan nan nan nan nan nan nan nan nan nan nan nan nan nan nan nan nan nan nan nan nan nan nan nan nan nan nan nan nan nan nan nan nan nan nan nan -0 -0 nan
nan nan nan nan nan nan nan nan nan nan nan nan nan nan nan nan nan nan nan nan nan nan nan nan nan nan nan nan nan nan nan nan -0 -0 nan nan nan nan nan nan nan nan nan nan nan nan nan nan nan nan nan nan nan nan nan nan nan nan nan nan nan nan nan nan nan nan nan nan nan nan nan nan nan nan nan nan nan nan nan nan nan nan nan nan nan nan
nan nan nan nan nan nan nan nan nan nan nan nan nan nan nan nan nan nan nan nan nan nan nan nan nan nan nan nan nan nan nan nan -0 -0 -0 nan nan nan nan nan nan nan nan nan nan nan nan nan nan nan nan nan nan nan nan nan nan nan nan nan nan nan nan nan nan nan nan nan nan nan nan nan nan nan nan nan nan nan nan nan nan nan nan nan nan nan
nan nan nan nan nan nan nan nan nan nan nan nan nan nan nan nan nan nan nan nan nan nan nan nan nan nan nan nan nan nan nan nan -0 -0 -0 nan nan nan nan nan nan nan nan nan nan nan nan nan nan nan nan nan nan nan nan nan nan nan nan nan nan nan nan nan nan nan nan nan nan nan nan nan nan nan nan nan nan nan nan nan nan nan nan nan nan nan
nan nan nan nan nan nan nan nan nan nan nan nan nan nan nan nan nan nan nan nan nan nan nan nan nan nan nan nan nan nan nan nan nan nan nan nan nan nan nan nan nan nan nan nan nan nan nan nan nan nan nan nan nan nan nan nan nan nan nan nan nan nan nan nan nan nan nan nan nan nan nan nan nan nan nan nan nan nan nan nan nan nan nan nan nan nan
nan nan nan nan nan nan nan nan nan nan nan nan nan nan nan nan nan nan nan nan nan nan nan nan nan nan nan nan nan nan nan nan nan nan nan nan nan nan nan nan nan nan nan nan nan nan nan nan nan nan nan nan nan nan nan nan nan nan nan nan nan nan nan nan nan nan nan nan nan nan nan nan nan nan nan nan nan nan nan nan nan nan nan nan nan nan
nan nan nan nan nan nan nan nan nan nan nan nan nan nan nan nan nan nan nan nan nan nan nan nan nan nan nan nan nan nan nan nan nan nan nan nan nan nan nan nan nan nan nan nan nan nan nan nan nan nan nan nan nan nan nan nan nan nan nan nan nan nan nan nan nan nan nan nan nan nan nan nan nan nan nan nan nan nan nan nan nan nan nan nan nan nan
nan nan nan nan nan nan nan nan nan nan nan nan nan nan nan nan nan nan nan nan nan nan nan nan nan nan nan nan nan nan nan nan nan nan nan nan nan nan nan nan nan nan nan nan nan nan nan nan nan nan nan nan nan nan nan nan nan nan nan nan nan nan nan nan nan nan nan nan nan nan nan nan nan nan nan nan nan nan nan nan nan nan nan nan nan nan
nan nan nan nan nan nan nan nan nan nan nan nan nan nan nan nan nan nan nan nan nan nan nan nan nan nan nan nan nan nan nan nan nan nan nan nan nan nan nan nan nan nan nan nan nan nan nan nan nan nan nan nan nan nan nan nan nan nan nan nan nan nan nan nan nan nan nan nan nan nan nan nan nan nan nan nan nan nan nan nan nan nan nan nan nan nan
nan nan nan nan nan nan nan nan nan nan nan nan nan nan nan nan nan nan nan nan nan nan nan nan nan nan nan nan nan nan nan nan nan nan nan nan nan nan nan nan nan nan nan nan nan nan nan nan nan nan nan nan nan nan nan nan nan nan nan nan nan nan nan nan nan nan nan nan nan nan nan nan nan nan nan nan nan nan nan nan nan nan nan nan nan nan
nan nan nan nan nan nan nan nan nan nan nan nan nan nan nan nan nan nan nan nan nan nan nan nan nan nan nan nan nan nan nan nan nan nan nan nan nan nan nan nan nan nan nan nan nan nan nan nan nan nan nan nan nan nan nan nan nan nan nan nan nan nan nan nan nan nan nan nan nan nan nan nan nan nan nan nan nan nan nan nan nan nan nan nan nan nan
nan nan nan nan nan nan nan nan nan nan nan nan nan nan nan nan nan nan nan nan nan nan nan nan nan nan nan nan nan nan nan nan nan nan nan nan nan nan nan nan nan nan nan nan nan nan nan nan nan nan nan nan nan nan nan nan nan nan nan nan nan nan nan nan nan nan nan nan nan nan nan nan nan nan nan nan nan nan nan nan nan nan nan nan nan nan
nan nan nan nan nan nan nan nan nan nan nan nan nan nan nan nan nan nan nan nan nan nan nan nan nan nan nan nan nan nan nan nan nan nan nan nan nan nan nan nan nan nan nan nan nan nan nan nan nan nan nan nan nan nan nan nan nan nan nan nan nan nan nan nan nan nan nan nan nan nan nan nan nan nan nan nan nan nan nan nan nan nan nan nan nan nan
nan nan nan nan nan nan nan nan nan nan nan nan nan nan nan nan nan nan nan nan nan nan nan nan nan nan nan nan nan nan nan nan nan nan nan -0 -0 -0 nan nan nan nan nan nan nan nan nan nan nan nan nan nan nan nan nan nan nan nan nan nan nan nan nan nan nan nan nan nan nan nan nan nan nan nan nan nan nan nan nan nan nan nan nan nan nan nan
nan nan nan nan nan nan nan nan nan nan nan nan nan nan nan nan nan nan nan nan nan nan nan nan nan nan nan nan nan nan nan nan nan nan nan nan nan nan nan nan nan nan nan nan nan nan nan nan nan nan nan nan nan nan nan nan nan nan nan nan nan nan nan nan nan nan nan nan nan nan nan nan nan nan nan nan nan nan nan nan nan nan nan nan nan nan
nan nan nan nan nan nan nan nan nan nan nan nan nan nan nan nan nan nan nan nan nan nan nan nan nan nan nan nan nan nan nan nan nan nan nan nan nan nan nan nan nan nan nan nan nan nan nan nan nan nan nan nan nan nan nan nan nan nan nan nan nan nan nan nan nan nan nan nan nan nan nan nan nan nan nan nan nan nan nan nan nan nan nan nan nan nan
nan nan nan nan nan nan nan nan nan nan nan nan nan nan nan nan nan nan nan nan nan nan nan nan nan nan nan nan nan nan nan nan nan nan nan nan nan nan nan nan nan nan nan nan nan nan nan nan nan nan nan nan nan nan nan nan nan nan nan nan nan nan nan nan nan nan nan nan nan nan nan nan nan nan nan nan nan nan nan nan nan nan nan nan nan nan
nan nan nan nan nan nan nan nan nan nan nan nan nan nan nan nan nan nan nan nan nan nan nan nan nan nan nan nan nan nan nan nan nan nan nan nan nan nan nan nan nan nan nan nan nan nan nan nan nan nan nan nan nan nan nan nan nan nan nan nan nan nan nan nan nan nan nan nan nan nan nan nan nan nan nan nan nan nan nan nan nan nan nan nan nan nan
nan nan nan nan nan nan nan nan nan nan nan nan nan nan nan nan nan nan nan nan nan nan nan nan nan nan nan nan nan nan -0 nan nan nan nan nan nan nan nan nan nan nan nan nan nan nan nan nan nan nan nan nan nan nan nan nan nan nan nan nan nan nan nan nan nan nan nan nan nan nan nan nan nan nan nan nan nan nan nan nan nan nan nan nan nan nan
-0 nan nan nan nan nan nan nan nan nan nan nan nan nan nan nan nan nan nan nan nan nan nan nan nan nan nan nan -0 -0 -0 nan nan nan nan nan nan nan nan nan nan nan nan nan nan nan nan nan nan nan nan -0 nan nan nan nan nan nan nan nan nan nan nan nan nan nan nan nan nan nan nan nan nan nan nan nan nan nan nan nan nan nan nan nan nan nan
Wind_Speed
2 3 4 5 5 4 4 5 6 6 6 5 5 5 5 5 6 6 7 7 6 6 5 5 4 4 4 5 6 6 5 5 4 4 3 3 2 2 1 1 1 1 3 4 5 7 7 7 7 7 6 4 3 2 1 1 1 2 4 7 8 9 9 9 10 10 11 12 13 14 15 15 15 15 15 14 14 14 14 13 13 11 10 10 9 9
2 3 3 4 4 4 4 5 5 5 6 6 5 5 5 6 6 5 6 6 6 5 5 5 4 4 4 4 5 5 5 5 4 3 3 2 1 1 0 1 0 1 3 4 6 7 9 9 9 8 6 5 4 3 1 2 2 4 6 8 9 9 9 9 9 10 10 11 12 13 13 13 13 13 13 13 13 12 12 11 11 10 9 9 8 8
3 3 3 3 3 4 3 4 4 3 4 5 4 4 5 6 5 5 5 5 5 5 4 4 4 4 4 3 4 5 5 4 4 3 2 2 1 0 1 1 1 1 2 3 5 8 10 10 9 8 7 6 5 4 3 4 4 5 6 7 8 9 9 9 9 9 10 10 11 11 12 12 11 11 12 11 11 11 10 10 9 8 7 7 7 8
4 4 4 3 2 2 2 3 3 2 2 3 3 3 4 4 3 3 4 5 5 5 4 4 4 4 3 2 3 4 4 4 3 3 2 2 1 1 1 1 1 1 2 3 5 8 11 11 10 9 7 7 6 5 5 6 6 7 7 7 8 8 9 9 9 9 9 9 9 9 10 10 11 11 11 10 10 9 9 9 9 8 7 7 7 7
4 3 4 3 1 0 0 2 2 2 2 3 2 2 2 2 2 3 3 4 5 5 4 4 3 3 2 2 2 3 3 3 3 3 2 2 2 1 1 2 2 2 2 3 6 9 11 10 10 9 8 7 7 6 7 7 7 8 8 8 8 9 9 9 9 9 8 8 8 8 9 10 10 10 10 9 9 9 9 9 9 9 9 8 8 8
4 3 3 2 1 1 1 0 1 2 2 2 2 2 2 2 2 2 3 4 4 4 4 3 3 3 2 2 2 2 2 2 2 3 3 3 2 2 2 2 2 2 2 3 6 9 11 10 10 9 8 8 7 7 8 8 8 8 9 9 9 10 10 9 9 9 9 9 9 9 9 10 10 10 9 9 8 8 8 9 10 10 10 10 9 9
4 3 3 2 2 1 1 1 1 2 2 2 2 2 2 2 2 2 2 3 3 3 3 3 3 2 2 2 2 1 0 1 2 3 3 3 3 3 2 2 2 2 3 4 6 9 11 10 10 9 9 8 8 8 8 8 9 9 9 9 10 10 10 10 10 10 10 10 11 10 10 10 10 9 9 8 8 8 8 8 9 9 9 10 10 10
4 3 2 2 2 1 0 1 2 2 2 2 3 2 2 1 1 2 2 2 2 2 2 2 2 2 3 2 2 1 1 1 2 3 3 3 3 3 3 2 2 3 4 4 6 9 11 11 11 10 9 9 9 9 9 9 9 9 9 10 10 11 11 11 11 11 11 12 12 12 12 12 11 10 10 9 9 8 8 8 8 8 8 9 9 9
6 5 3 3 3 3 2 1 2 2 2 2 2 3 3 3 2 2 2 2 2 1 1 2 2 2 2 2 1 1 2 2 2 2 2 2 3 3 3 3 3 3 4 5 6 9 12 12 11 11 10 10 10 10 10 9 9 9 9 10 11 11 11 11 11 12 12 12 12 13 13 12 12 11 11 11 10 10 9 9 8 8 8 8 8 8
6 6 5 4 3 3 3 3 3 2 2 1 1 2 3 4 4 3 2 1 1 1 1 2 2 2 2 1 1 1 2 2 2 2 2 1 2 2 3 3 4 4 5 6 7 9 11 12 12 12 11 11 11 10 10 9 9 9 10 10 11 12 12 12 12 12 12 12 12 13 13 12 12 12 11 11 11 10 10 9 9 8 7 7 7 7
5 6 5 4 2 2 2 2 2 2 2 1 0 0 1 2 3 4 4 3 2 1 1 2 2 1 1 1 1 1 2 2 1 1 1 1 1 1 2 3 4 4 5 6 7 9 12 13 13 12 12 11 11 11 10 10 10 10 10 11 11 12 12 12 12 12 12 12 12 12 12 12 12 11 11 11 10 10 10 9 8 8 7 7 7 7
5 5 4 4 3 2 2 2 1 1 2 2 2 1 1 1 2 2 4 4 3 2 2 1 1 1 1 1 1 2 2 2 1 0 0 1 1 1 0 2 3 4 5 6 8 9 12 13 13 13 12 12 11 11 10 10 10 10 10 11 11 12 12 12 12 12 12 12 12 12 12 11 11 10 10 10 9 9 8 8 8 7 7 7 6 6
5 4 4 4 3 3 3 3 2 2 3 4 4 5 4 2 1 1 2 2 2 2 2 1 1 1 1 1 1 2 2 2 1 0 0 1 2 2 1 0 2 3 4 5 6 8 11 13 13 12 12 12 11 11 10 10 10 10 11 11 11 12 12 12 12 11 11 11 11 11 11 10 10 9 9 9 8 8 7 7 7 6 6 6 6 6
5 5 4 4 4 4 4 5 5 5 6 5 4 4 4 3 2 2 2 2 2 2 2 2 1 1 1 1 1 1 2 2 1 1 1 2 2 2 2 0 1 2 3 4 4 5 8 10 9 10 11 11 11 11 10 10 10 10 11 11 11 12 12 12 12 11 11 11 11 10 10 10 9 9 8 8 7 7 7 6 6 6 6 6 6 6
6 6 6 6 6 5 5 6 7 7 7 4 3 2 3 3 3 3 3 3 2 2 2 2 1 1 0 0 0 1 2 2 1 0 1 2 2 3 3 1 2 3 3 3 3 4 5 6 6 6 8 9 10 10 9 10 10 11 11 11 11 11 11 11 11 11 11 10 10 10 9 9 8 8 7 7 6 6 6 6 6 6 6 6 6 6
6 7 8 8 7 7 6 6 7 6 5 4 3 4 5 5 4 4 4 4 3 3 2 2 1 1 0 1 1 1 2 2 1 0 1 2 2 3 3 2 2 4 4 4 4 3 3 3 4 5 6 8 9 9 9 10 10 11 11 11 11 11 11 11 10 10 10 10 9 9 9 8 8 7 7 6 6 5 5 5 5 5 5 5 5 5
6 6 7 8 7 7 6 6 6 6 5 4 4 5 6 6 5 5 5 4 4 3 2 3 2 2 1 1 1 1 1 2 1 0 2 2 2 3 4 2 3 4 4 4 4 3 3 3 3 4 5 8 9 9 9 9 10 10 10 11 11 11 10 10 10 9 9 9 8 8 8 7 7 6 6 5 5 4 4 4 4 4 4 4 4 4
6 6 6 7 7 7 7 6 5 5 5 5 4 4 3 3 4 4 4 4 4 3 3 2 2 2 2 2 2 1 1 1 1 1 2 2 2 3 4 2 3 4 4 4 4 3 3 2 2 3 5 8 9 9 9 9 9 10 10 10 10 10 10 10 9 9 8 8 8 7 7 6 6 6 5 5 4 3 3 2 2 2 2 2 2 2
6 6 6 6 6 6 6 6 6 6 6 6 5 4 4 3 3 3 3 3 3 3 3 2 2 1 1 1 1 1 1 2 1 1 3 2 2 2 3 2 3 4 4 4 3 3 2 2 3 3 6 8 10 10 9 9 9 9 10 10 10 10 9 9 8 8 8 7 7 6 6 6 5 5 5 4 3 3 2 2 1 1 1 0 0 1
7 7 7 6 6 6 6 7 7 7 7 7 6 5 5 4 4 3 3 3 3 2 2 2 2 1 1 1 1 1 0 2 1 1 2 2 1 2 3 2 2 3 4 3 2 2 2 3 3 3 5 7 9 9 9 9 9 9 9 9 9 9 8 8 8 7 7 6 6 6 5 5 5 5 5 4 4 4 3 3 3 3 2 2 2 1
8 8 7 6 7 7 7 7 7 7 7 7 7 6 5 5 4 4 3 3 3 2 2 2 1 1 1 1 1 1 1 2 1 1 2 1 1 2 2 2 2 3 4 3 2 2 2 3 3 4 5 7 8 8 8 8 8 8 8 8 8 8 7 7 7 7 6 6 6 6 6 6 6 6 6 6 5 5 5 5 5 5 4 4 3 3
8 8 7 7 7 7 7 7 7 8 9 9 8 7 6 6 5 5 4 4 4 3 3 2 2 2 2 2 1 1 2 2 1 1 2 2 1 1 2 2 1 2 3 2 2 2 3 3 4 5 8 8 8 7 7 7 7 7 7 7 7 6 6 6 6 6 6 6 7 7 7 7 7 7 7 7 7 7 7 7 7 6 6 6 5 4
7 7 7 7 6 6 6 7 8 8 9 8 7 6 5 6 6 6 5 5 4 4 4 3 3 3 2 2 1 1 2 2 2 1 2 2 2 1 1 1 1 2 3 2 2 2 3 3 4 5 8 10 10 8 7 6 5 5 5 5 5 4 4 4 4 4 5 6 6 7 7 7 8 8 8 9 9 9 9 9 8 8 8 7 7 6
6 7 7 6 5 5 5 6 7 7 6 6 5 4 4 4 4 4 4 4 5 5 5 5 4 3 2 2 1 1 2 2 2 1 1 2 2 1 1 1 1 2 3 2 2 2 2 3 4 4 5 9 10 10 9 8 7 6 6 6 5 4 4 3 2 1 1 1 2 3 4 6 7 8 9 10 10 10 10 10 10 10 9 9 8 7
6 6 6 6 6 7 7 7 8 8 7 6 6 6 6 6 6 6 5 5 5 5 5 5 4 3 1 1 0 0 1 2 2 1 1 2 2 1 1 1 1 2 2 2 1 2 2 3 3 3 4 6 9 10 9 8 8 7 7 7 7 6 6 5 5 5 4 3 3 2 1 2 3 4 6 8 9 10 11 11 11 11 11 10 9 9
8 8 9 10 11 12 12 12 12 12 11 9 8 7 7 7 7 6 6 5 5 6 6 5 4 2 1 1 0 0 1 2 2 1 1 2 2 1 1 1 1 1 2 1 1 2 2 3 3 3 3 4 6 8 9 8 8 7 7 7 7 7 6 6 6 5 5 5 5 5 4 4 3 2 2 3 5 7 9 10 11 12 12 11 10 10
14 15 16 16 16 16 16 16 16 16 15 13 11 10 9 8 7 7 6 6 6 6 6 5 4 2 1 1 1 0 1 1 1 1 1 2 3 2 1 1 1 1 2 1 2 2 3 3 3 3 3 3 4 5 8 8 8 7 7 7 7 7 7 6 6 6 6 5 5 5 5 5 5 4 4 4 4 4 5 6 8 10 11 11 10 9
18 18 18 18 18 18 18 18 17 17 17 16 16 14 10 8 8 7 7 7 6 6 5 5 4 3 2 1 1 0 1 1 1 1 1 2 3 2 1 0 1 1 2 1 1 2 3 3 3 3 3 3 3 4 6 7 7 7 7 8 8 8 8 7 7 7 6 6 6 5 5 5 5 5 5 5 5 5 5 5 6 7 9 9 7 5
19 19 19 19 19 18 18 17 17 17 17 16 15 12 8 6 6 7 7 7 6 5 5 4 3 3 3 2 1 0 0 1 1 1 1 2 2 2 1 1 1 1 1 2 1 2 2 2 2 2 2 3 3 3 4 5 6 6 7 8 9 9 9 9 8 8 7 7 7 6 6 5 5 5 5 5 5 5 6 6 6 5 5 4 3 2
14 15 16 16 15 15 14 13 14 15 15 14 12 8 4 3 3 4 6 6 6 5 5 4 4 4 4 3 2 1 0 0 0 1 0 1 2 2 1 1 1 1 1 1 2 2 2 2 2 2 2 3 3 3 3 3 4 4 4 6 7 9 9 9 9 9 9 8 8 7 7 6 6 5 5 5 5 5 6 6 5 4 2 1 1 1
10 10 10 10 9 9 8 8 9 10 11 10 8 6 4 3 3 3 4 5 5 5 5 5 5 4 4 3 3 2 1 1 1 0 0 1 2 1 1 1 1 0 1 1 2 2 2 2 1 1 1 2 2 3 3 3 3 3 2 3 5 6 8 9 9 8 8 8 8 8 8 7 7 6 6 6 5 6 6 6 5 3 1 0 0 1
9 9 8 7 7 6 6 6 6 7 7 6 5 5 4 4 3 3 3 3 3 4 4 5 5 4 3 3 2 2 1 1 1 1 1 2 2 1 1 1 1 1 1 1 0 1 2 2 2 1 1 1 1 2 2 3 3 2 2 3 3 4 6 7 7 7 7 7 8 8 8 8 8 7 6 6 6 6 6 6 5 3 1 1 1 1
9 8 7 7 7 6 6 6 5 5 5 4 4 4 4 4 4 4 3 2 2 3 4 5 5 4 3 3 2 2 1 1 2 2 2 2 2 1 1 1 1 1 1 1 1 1 2 2 1 1 0 0 1 1 1 2 2 2 2 3 3 3 5 5 5 5 5 5 6 7 7 8 8 7 7 6 6 6 6 6 6 5 3 1 2 2
9 9 8 7 7 6 6 6 6 5 5 4 4 4 4 4 4 4 3 3 2 2 2 4 4 4 4 3 2 2 1 1 2 3 3 2 2 1 1 1 1 1 1 1 1 1 2 1 1 1 1 1 1 1 1 1 2 2 2 2 2 2 3 3 4 3 4 3 4 4 5 5 6 6 6 6 6 6 6 7 7 6 5 3 3 3
9 8 8 7 7 7 6 6 6 6 5 5 4 4 4 4 4 4 4 4 4 3 3 3 2 3 3 3 3 3 2 2 2 2 2 2 2 2 2 1 1 2 2 1 1 1 1 1 1 1 1 1 1 1 1 1 1 1 1 2 2 2 2 2 3 3 3 3 3 3 3 3 4 4 4 5 6 7 7 7 7 7 6 5 5 4
8 8 7 7 7 7 7 7 6 6 5 4 4 4 4 4 4 4 4 4 5 5 5 4 4 3 2 2 3 4 4 3 2 2 2 1 1 2 2 1 1 1 2 2 2 2 2 1 1 1 1 1 1 1 1 0 0 0 1 2 2 2 2 2 2 2 2 3 3 3 2 3 3 3 3 5 6 7 7 6 6 6 6 6 6 5
8 7 7 6 7 7 7 6 6 6 5 4 4 4 4 5 5 5 5 5 5 5 6 6 6 6 6 4 4 5 5 4 3 2 2 1 1 1 2 1 1 1 2 2 2 2 2 2 1 1 1 1 1 1 1 0 0 1 1 1 2 2 2 2 2 2 2 2 2 2 2 2 2 3 3 5 6 6 6 5 5 5 6 6 6 7
8 7 6 6 6 6 7 6 6 5 5 5 5 5 5 5 6 6 5 6 6 6 6 6 6 8 10 9 8 7 6 5 4 3 3 2 1 1 2 2 1 1 1 2 2 3 2 2 2 2 1 1 1 1 1 0 1 1 1 1 1 1 1 1 1 2 2 2 2 2 2 2 2 2 3 3 3 3 3 3 3 4 5 5 6 6
7 7 6 6 6 6 6 6 6 6 5 5 5 5 6 6 7 7 6 6 6 7 7 6 6 7 9 10 9 8 7 6 5 4 3 2 1 1 3 3 2 1 1 1 1 2 2 2 2 2 2 1 1 1 1 0 0 1 1 1 0 1 1 1 1 2 2 2 2 3 2 2 2 2 2 2 2 2 2 2 3 3 4 4 4 5
7 7 7 6 6 6 6 6 6 6 6 6 7 7 6 6 6 6 7 6 6 6 7 7 7 7 7 7 7 7 6 5 4 4 3 2 2 1 2 3 3 3 2 1 1 1 1 2 2 2 2 2 1 1 1 1 1 0 1 0 0 1 1 1 1 1 1 1 2 2 2 2 2 2 2 2 2 2 2 2 2 2 3 2 2 3
8 7 7 6 6 6 6 6 6 6 6 6 6 6 6 6 6 6 6 6 6 5 5 6 7 7 7 7 7 6 6 5 5 4 3 3 2 2 2 3 3 3 3 2 1 1 1 2 2 2 1 1 1 1 1 1 1 1 0 0 1 1 1 1 1 1 1 1 1 2 3 3 3 3 2 2 2 2 2 2 2 2 2 1 1 1
8 8 7 6 6 6 6 6 6 6 6 6 6 6 6 5 5 5 6 5 5 4 3 4 5 6 6 6 5 5 5 5 4 4 3 3 3 2 2 2 3 3 3 3 2 2 1 2 2 2 2 2 1 1 1 1 1 1 0 0 1 1 1 0 0 1 1 2 2 2 3 3 3 3 3 3 2 2 2 2 3 3 2 1 1 1
7 7 7 6 6 6 7 7 7 6 6 5 5 5 4 4 5 6 6 6 5 4 3 3 4 5 6 5 4 4 4 4 4 4 4 3 3 3 3 3 2 2 3 3 3 2 2 2 2 2 1 1 1 1 1 2 2 1 1 0 0 1 0 1 1 1 1 2 2 2 3 3 3 3 3 3 3 2 2 2 3 3 3 2 1 1
7 7 7 6 6 6 6 6 6 5 5 6 5 5 4 4 5 6 6 5 5 4 2 2 3 5 6 5 4 3 3 3 3 3 4 4 4 4 4 3 2 1 1 2 3 2 2 2 2 2 1 1 1 1 1 1 1 1 1 1 0 0 1 1 2 2 2 2 2 2 2 2 3 3 3 3 2 2 2 2 2 2 2 2 1 2
7 7 7 6 6 6 6 6 5 5 5 5 5 5 4 4 4 5 5 5 5 4 2 2 3 4 4 3 3 3 2 2 2 2 3 4 5 5 4 3 2 2 2 2 2 2 2 2 2 2 1 1 1 1 1 1 1 1 1 1 1 1 1 1 1 2 2 2 2 3 3 2 2 3 3 2 2 2 1 2 2 1 1 1 1 2
7 7 7 6 6 6 6 6 5 5 5 5 5 5 4 3 3 4 6 6 5 3 2 2 3 3 4 4 4 3 3 2 2 2 1 2 3 3 3 3 3 3 3 3 3 2 2 2 3 3 3 2 1 1 1 1 1 1 1 1 1 0 1 1 1 1 1 2 2 3 3 3 2 2 2 2 2 2 2 2 2 2 2 1 1 1
8 8 7 6 6 6 6 6 5 5 5 5 5 4 3 3 4 5 5 5 4 3 3 3 3 4 4 4 4 3 3 3 2 2 2 2 2 2 3 3 3 3 3 3 3 3 3 3 3 3 3 2 2 1 1 1 1 1 0 0 0 0 0 0 0 0 0 1 2 3 3 3 2 2 2 2 2 2 2 1 1 1 1 1 1 1
8 8 7 7 7 6 6 6 6 6 6 6 5 4 4 4 5 5 5 5 4 4 4 3 3 4 4 4 4 4 4 4 3 2 2 2 2 2 2 2 3 3 3 3 3 3 3 3 2 1 1 1 1 1 1 1 1 1 0 0 0 0 0 0 0 0 0 0 1 2 2 2 2 2 3 2 2 2 2 2 1 1 1 1 2 2
8 8 8 8 7 7 7 6 6 6 6 6 6 5 4 4 6 6 5 5 4 4 4 4 5 5 4 4 4 4 4 4 3 3 2 2 1 1 2 2 2 2 2 3 3 3 3 2 2 1 0 0 1 1 2 2 1 1 0 0 0 0 0 0 0 0 0 0 0 0 1 1 1 1 2 2 2 2 2 2 2 1 1 1 1 2
8 8 8 8 8 8 8 7 7 7 7 7 6 6 5 4 4 5 5 4 4 4 4 5 5 5 5 4 4 4 4 3 3 3 2 2 2 1 2 2 2 2 2 2 2 2 2 2 2 1 1 1 1 1 2 2 2 1 1 0 0 1 1 1 1 1 1 1 0 0 0 1 1 1 1 2 2 2 2 2 2 2 1 2 2 2
8 7 7 8 8 8 8 7 7 7 7 7 7 6 6 5 4 4 4 4 4 4 4 4 5 5 5 5 4 4 4 3 3 3 3 2 2 1 1 1 1 1 1 1 1 1 1 1 2 2 2 2 3 2 2 2 2 1 1 1 1 1 1 1 1 1 1 1 1 0 1 1 1 1 1 2 2 2 2 3 3 3 2 3 3 3
Wind_Direction
107 123 130 139 144 150 164 170 163 156 153 154 154 152 145 134 126 123 123 123 122 123 122 122 119 113 102 93 89 86 84 82 80 78 80 87 95 103 106 106 111 243 242 214 190 169 148 135 127 122 119 114 107 91 60 39 39 51 59 67 73 76 76 76 75 74 74 72 69 65 60 57 56 58 61 67 72 78 84 89 92 95 98 101 103 105
110 117 129 150 157 160 164 183 181 172 160 159 159 159 154 145 138 130 124 120 119 119 120 121 118 112 106 100 91 85 84 83 82 82 84 86 91 103 140 158 205 249 248 215 186 163 143 133 127 126 126 128 128 123 103 89 79 74 71 70 69 69 70 71 73 75 78 80 79 76 72 66 61 59 59 62 67 72 78 84 89 94 98 101 102 102
137 138 148 162 170 171 167 186 193 185 159 154 155 156 152 144 138 133 128 122 117 113 112 115 115 114 111 108 94 85 84 87 89 93 97 101 111 151 226 237 248 256 255 207 175 157 141 136 133 134 137 142 145 142 132 115 101 91 84 78 76 75 75 75 76 79 82 85 86 85 83 78 72 66 63 61 63 65 70 73 77 82 90 97 100 101
145 150 154 153 166 183 177 177 177 167 131 128 133 139 139 131 127 124 123 121 117 112 109 112 115 117 119 115 95 84 84 92 101 109 117 125 141 175 223 243 253 260 262 202 170 155 143 140 139 141 145 151 152 147 136 124 114 106 98 92 89 87 85 84 83 84 85 86 88 89 89 86 82 77 70 65 63 62 63 64 64 64 69 80 91 97
148 148 143 139 127 66 249 166 156 142 120 115 116 118 112 108 110 114 115 115 114 113 113 113 114 115 119 113 91 81 85 101 114 125 132 139 149 169 204 233 247 254 254 197 170 157 148 145 144 147 151 154 153 148 137 128 121 114 108 103 100 97 94 90 87 85 84 83 84 86 88 88 86 82 77 70 65 63 62 63 60 57 56 60 67 75
141 129 113 114 92 49 4 199 168 151 131 121 112 105 97 103 111 118 118 114 113 114 114 113 110 104 98 86 72 67 84 115 130 137 140 143 150 163 186 216 238 250 252 199 174 161 152 150 149 151 155 156 153 146 137 130 123 117 113 109 106 103 98 94 89 85 81 78 77 78 81 83 83 82 79 74 69 66 65 65 63 59 56 54 55 58
126 105 91 87 73 50 5 263 218 188 155 136 120 106 93 97 103 107 108 109 112 113 114 111 102 89 73 58 46 37 59 152 152 149 145 145 150 158 175 201 228 246 251 210 181 167 157 154 154 155 156 156 151 145 138 132 126 121 117 114 110 106 102 97 93 88 84 80 78 77 76 76 76 76 76 73 70 67 66 68 67 64 60 56 53 51
127 115 108 111 110 102 57 265 245 226 193 158 143 132 124 112 100 92 89 89 93 101 109 104 93 78 62 46 32 3 267 210 186 171 159 156 157 162 171 191 217 237 244 218 190 173 162 159 157 156 157 155 151 146 140 134 129 125 121 117 113 109 105 102 98 94 90 86 83 80 77 75 73 72 71 69 66 63 62 64 65 65 63 59 55 51
142 145 149 151 150 150 158 200 227 232 232 194 165 153 147 145 138 120 98 81 70 66 79 87 85 76 63 47 21 310 261 235 213 192 176 173 173 172 174 183 201 222 237 223 200 179 166 161 159 158 157 155 151 147 142 136 132 127 123 119 115 111 109 106 103 99 95 92 89 86 83 80 77 73 70 67 64 61 58 57 57 58 59 57 54 50
148 154 160 160 159 158 164 174 189 208 232 237 204 170 159 155 153 150 144 128 85 53 44 60 72 77 68 54 9 292 272 249 225 192 162 150 164 175 174 177 188 205 223 223 207 187 170 163 160 158 157 154 151 146 141 137 132 128 124 120 116 113 111 109 106 104 101 98 95 93 90 87 83 79 74 70 67 63 58 54 51 49 48 48 46 43
151 157 161 159 152 140 147 154 161 175 198 206 216 205 185 165 161 159 160 158 146 107 61 52 55 60 55 33 345 309 288 264 240 184 111 74 88 141 162 173 183 195 210 216 206 189 171 163 159 157 154 152 148 144 140 136 132 128 125 121 118 115 114 112 110 108 106 103 100 98 95 92 89 85 80 76 72 68 63 58 52 47 43 40 38 35
153 159 164 161 152 139 126 119 123 146 175 172 169 179 210 207 185 166 162 160 155 143 114 76 56 43 31 4 337 316 300 278 258 234 54 34 26 23 157 175 181 188 198 208 200 185 170 161 157 154 151 149 146 143 139 136 132 129 126 123 121 119 117 115 114 112 110 107 104 101 98 96 93 90 87 82 78 74 69 64 58 52 46 41 37 33
152 156 160 161 159 154 146 144 151 171 193 193 188 183 180 178 168 142 133 139 138 130 118 101 76 47 28 8 341 321 304 289 279 279 23 19 6 346 311 202 169 169 176 188 185 176 165 158 153 149 147 146 144 141 138 135 133 131 128 126 124 122 120 119 117 115 113 110 107 105 102 100 98 95 92 89 85 81 77 73 67 61 54 49 44 38
151 153 157 164 169 168 165 167 175 185 196 199 192 178 156 147 138 125 108 105 99 93 92 89 78 52 19 5 340 319 303 292 290 314 37 27 5 342 317 343 107 121 134 144 151 153 152 151 148 144 143 143 142 141 138 135 134 133 131 129 127 125 123 122 120 119 117 114 112 111 109 107 105 102 98 95 92 89 86 82 76 71 65 59 53 48
157 158 163 172 177 178 177 179 186 191 194 190 174 146 125 134 140 140 130 129 123 108 92 85 72 47 325 150 311 305 293 284 282 315 61 36 8 347 329 4 64 80 85 96 101 109 123 133 136 137 138 142 143 142 139 137 136 135 134 131 129 127 125 124 123 123 122 120 118 117 115 113 111 108 105 102 99 96 92 88 84 78 72 67 61 56
164 165 170 176 179 181 183 184 187 189 187 174 160 153 150 157 161 157 147 145 141 135 124 115 103 85 260 176 176 222 274 275 272 248 91 52 15 355 339 12 63 76 73 76 75 73 75 96 114 125 131 137 138 138 137 138 138 138 137 134 131 128 127 127 126 126 126 125 123 122 120 118 115 112 110 107 104 101 97 92 87 81 76 70 65 60
170 174 175 177 180 182 182 183 184 182 174 170 170 171 169 168 165 159 151 146 143 142 146 143 143 150 183 185 182 189 230 258 256 165 100 65 22 357 344 13 66 80 72 68 61 53 45 64 90 113 127 133 134 134 135 137 140 140 139 136 133 130 129 130 130 130 130 129 128 126 124 122 119 117 115 113 110 106 102 96 90 83 76 70 64 57
177 181 179 179 180 179 175 178 178 175 167 169 171 172 167 157 151 148 148 146 147 149 151 150 153 158 160 179 176 167 175 239 231 160 105 81 32 357 349 15 64 81 77 64 51 36 26 35 57 98 125 131 132 133 134 138 140 142 140 136 133 131 132 133 134 135 135 134 133 132 130 128 127 126 125 124 122 119 116 111 103 91 81 68 58 48
181 184 183 183 179 173 170 175 174 172 170 170 165 157 146 136 133 136 143 145 148 148 145 148 155 164 168 181 161 136 157 245 231 146 102 86 45 3 353 15 65 81 80 65 47 29 19 19 32 68 113 124 127 129 132 136 140 141 138 135 133 132 134 137 140 141 142 143 143 142 142 141 141 142 142 145 147 151 156 162 167 170 166 158 21 7
182 186 189 182 173 167 171 178 177 173 169 163 156 150 149 146 144 142 145 145 140 131 123 134 147 162 177 169 129 93 292 259 244 120 92 84 53 12 357 6 61 85 82 65 39 19 18 24 35 64 99 112 119 125 129 133 136 138 136 134 133 135 139 144 148 151 154 155 157 158 159 160 161 163 167 172 179 187 196 203 210 215 221 229 242 262
181 188 189 176 167 166 175 177 174 166 158 149 145 145 150 150 152 154 155 149 140 129 116 120 128 137 138 126 95 358 311 276 251 142 104 85 57 23 1 1 44 82 86 66 37 18 23 34 34 43 67 93 107 118 127 133 136 138 137 137 138 141 149 155 161 166 170 172 174 175 177 179 181 184 187 192 198 205 211 216 220 224 227 232 238 246
178 181 177 170 167 168 168 163 158 154 148 147 149 154 157 158 161 163 161 155 150 142 129 114 98 86 83 84 57 343 313 288 265 164 118 100 74 33 3 353 34 77 84 64 35 20 29 38 39 42 49 61 78 98 114 124 134 140 138 141 146 153 161 173 180 185 189 191 193 193 193 194 196 198 200 205 209 213 217 221 224 227 229 231 234 239
168 165 159 161 161 158 150 146 145 146 148 151 155 157 155 157 159 160 159 153 143 130 115 105 96 89 83 82 60 342 316 295 275 227 118 108 98 58 3 348 27 73 79 59 33 22 36 45 43 40 41 46 52 61 73 86 99 108 114 121 129 139 155 174 186 196 204 207 209 209 209 209 209 210 211 213 216 219 222 224 226 228 230 231 232 234
146 145 145 146 144 138 135 138 141 143 144 140 132 120 111 115 118 120 122 120 116 114 114 115 110 102 92 100 88 358 324 306 290 267 115 107 100 79 1 354 48 79 82 61 35 28 49 55 48 38 33 37 40 44 49 55 61 69 77 78 80 81 80 82 86 99 157 213 224 226 224 223 222 221 221 221 223 224 225 227 229 230 231 231 232 232
126 130 134 133 132 132 135 138 141 140 137 128 117 107 101 98 95 94 95 101 110 119 129 127 122 113 105 113 97 341 318 313 308 308 102 105 100 86 11 9 55 84 88 62 35 33 61 63 53 40 31 30 32 35 38 42 48 54 61 64 65 63 60 58 55 52 48 42 34 21 347 277 251 240 235 233 232 231 231 231 231 231 232 232 232 231
119 123 125 126 127 129 133 136 137 137 134 130 125 122 119 115 111 109 110 119 131 139 141 135 131 131 147 154 190 291 304 318 328 347 77 107 111 106 39 24 55 85 95 67 37 37 64 65 55 42 34 25 25 27 31 35 41 48 54 59 61 60 57 54 52 49 47 44 40 36 30 25 15 353 318 282 261 249 243 238 235 234 233 233 232 231
119 121 123 123 125 128 131 133 134 133 132 131 131 132 131 130 128 129 137 149 155 156 152 146 143 143 151 150 163 256 299 324 344 1 27 101 110 109 88 43 64 89 95 72 46 47 63 62 53 42 37 24 16 19 27 32 38 45 53 59 61 59 56 53 50 47 45 41 38 34 30 28 24 18 13 358 338 316 289 264 250 241 236 233 231 229
119 121 122 123 124 126 129 130 131 131 131 133 136 138 140 140 142 148 159 163 163 161 158 153 148 146 147 144 149 211 297 343 356 352 340 87 99 103 104 71 72 91 100 89 69 60 62 60 50 39 34 30 22 18 23 29 36 44 52 58 61 60 56 53 50 48 45 41 37 32 26 21 17 12 8 1 355 347 335 316 288 261 242 233 227 220
116 117 118 119 121 123 124 125 127 128 131 134 137 140 143 144 150 156 161 160 159 159 158 153 146 139 135 130 126 121 334 23 358 337 316 83 92 98 115 95 79 87 111 117 107 85 66 61 50 38 29 33 32 27 21 27 32 40 48 56 58 57 53 50 49 48 45 42 37 32 25 18 11 4 358 352 347 344 342 337 322 296 263 238 218 200
113 113 112 112 114 115 118 120 123 126 128 128 127 124 114 117 134 144 149 152 155 156 153 146 141 135 130 123 117 107 116 94 33 346 311 94 101 110 135 112 88 83 133 138 131 118 95 85 74 57 38 40 42 41 35 33 31 34 43 54 56 54 49 46 45 45 43 41 37 32 26 19 11 3 356 348 342 338 336 336 332 328 321 309 212 202
109 105 101 99 99 99 100 104 110 114 115 111 104 94 79 80 96 118 134 146 151 151 147 145 144 143 140 133 132 140 165 139 115 97 203 102 107 118 135 122 103 74 287 174 145 136 129 123 111 91 58 48 49 51 50 48 42 37 40 54 55 50 43 40 40 41 41 38 35 32 27 20 13 7 359 350 343 337 332 330 328 329 356 4 258 237
104 99 95 92 88 84 83 83 86 89 91 86 81 78 78 80 85 96 112 128 136 138 138 140 142 142 138 130 131 139 148 131 140 154 142 107 103 105 117 118 112 106 296 311 82 127 132 135 131 114 64 49 49 54 53 54 47 39 34 55 55 46 35 34 35 37 38 36 33 30 25 19 14 8 2 354 346 339 332 327 322 315 294 235 239 249
101 97 95 92 89 86 84 83 83 83 82 79 76 74 75 76 76 75 75 81 102 120 132 136 136 131 116 100 95 98 102 112 153 165 151 121 110 116 133 128 127 130 138 8 21 53 99 118 127 124 83 64 63 60 55 53 47 39 29 47 52 44 29 27 30 33 34 33 31 27 22 17 12 7 1 355 348 341 333 327 319 309 287 253 242 250
102 101 100 98 95 92 89 88 87 87 85 83 81 80 77 76 74 71 66 59 60 75 105 125 131 130 125 110 99 92 89 115 162 165 153 125 116 124 135 132 138 139 135 103 73 66 74 88 109 126 125 128 118 92 66 51 43 38 34 47 52 46 30 25 26 28 29 30 29 25 19 13 7 3 358 353 347 340 334 326 317 309 299 281 264 256
105 105 106 105 105 102 99 96 93 91 87 83 80 79 79 78 77 76 72 68 63 58 56 68 91 115 128 129 130 130 134 146 162 162 147 130 125 126 124 133 142 141 127 120 113 106 96 93 114 135 134 136 137 127 94 64 47 44 54 62 64 59 41 28 24 23 21 25 27 24 16 7 1 357 352 347 342 337 332 326 319 312 307 297 286 274
110 111 112 114 113 112 110 107 103 98 92 85 80 78 78 78 77 75 73 73 73 71 66 58 52 50 57 100 121 127 130 132 139 142 127 127 129 124 116 134 147 141 124 122 120 117 112 112 124 136 136 138 142 143 128 104 95 93 86 77 75 71 58 39 28 23 19 19 20 17 8 1 354 346 340 338 335 333 330 327 324 320 317 309 301 292
116 117 118 118 118 118 116 114 111 107 104 99 92 85 82 80 78 75 71 70 71 73 73 68 62 55 49 53 71 89 105 106 98 78 65 75 106 114 109 125 144 148 132 135 135 132 122 123 126 129 130 141 145 148 139 21 10 42 67 68 68 70 67 47 32 25 25 15 8 2 357 351 345 336 329 332 332 330 330 330 331 331 329 322 312 302
120 121 122 121 121 121 120 119 118 116 114 109 103 96 90 87 83 80 76 71 71 72 75 71 67 62 59 63 66 70 77 74 60 40 25 11 37 99 108 114 129 149 136 138 141 140 134 134 137 143 156 171 161 142 117 17 2 6 17 41 65 81 83 65 44 31 24 8 356 348 349 347 339 329 325 329 331 331 330 333 337 339 338 329 318 309
125 126 127 128 128 127 126 124 122 119 115 111 109 105 101 93 87 82 79 75 73 73 75 76 74 69 63 65 66 67 67 62 51 34 17 1 11 81 109 115 122 130 114 108 118 129 133 137 144 150 155 156 152 138 124 103 38 355 338 354 73 110 114 92 66 40 22 2 348 343 342 339 331 325 322 326 330 331 331 329 335 341 344 335 322 311
130 130 131 132 131 128 125 123 122 120 117 115 113 110 106 98 91 85 81 79 78 78 80 82 80 75 67 62 58 56 54 51 45 35 19 1 358 40 104 119 127 134 132 97 76 95 116 122 127 132 133 134 135 136 134 132 127 83 355 4 58 92 86 72 62 51 22 357 344 339 336 333 329 326 323 322 323 322 320 316 320 327 337 336 326 315
132 131 131 129 124 117 112 115 118 120 121 121 117 113 109 106 102 97 92 88 84 83 86 89 87 82 73 65 57 51 44 41 38 34 21 3 357 14 84 116 127 132 133 113 89 80 100 115 118 116 107 111 112 112 112 116 123 120 81 32 3 351 351 15 33 33 355 347 344 342 338 336 335 333 325 317 310 301 293 291 291 293 300 302 301 304
133 132 131 127 121 116 116 117 119 120 122 120 118 117 117 116 115 114 111 104 98 92 90 99 99 96 86 76 66 56 46 37 35 35 33 21 24 39 73 105 122 129 127 112 93 74 71 99 114 122 131 128 124 121 121 122 123 122 106 353 312 303 294 309 62 36 338 349 354 354 348 343 337 329 318 309 301 291 281 271 271 274 278 266 252 256
130 127 125 123 123 124 125 123 123 123 122 118 117 117 118 120 122 121 117 114 112 110 100 99 102 104 102 94 82 66 52 40 35 37 43 42 43 49 67 83 101 119 128 117 106 89 66 73 80 89 106 126 132 133 137 131 132 136 135 160 281 286 254 68 50 17 345 355 2 5 358 345 330 315 305 299 295 289 278 271 271 273 278 276 262 248
119 117 117 119 122 124 124 124 126 127 126 122 121 121 121 121 122 120 116 117 119 118 105 99 102 104 102 100 97 89 74 57 47 43 42 51 58 63 69 72 68 64 83 110 120 123 111 92 82 79 77 87 103 118 125 124 128 133 137 155 221 300 3 9 359 351 344 352 1 5 1 341 322 306 294 287 284 282 280 276 273 272 274 272 266 256
116 118 120 123 125 126 126 128 129 129 126 125 125 127 127 125 125 125 123 124 124 123 119 125 118 112 106 112 116 117 112 100 82 62 46 48 56 65 74 73 65 51 41 57 86 116 130 126 120 113 101 81 75 85 106 110 115 122 134 147 174 260 302 316 322 325 330 340 350 356 355 336 315 301 297 298 300 302 305 308 305 298 292 280 265 259
121 124 126 128 129 131 132 132 131 128 126 126 127 129 129 128 128 127 127 126 126 126 133 131 123 121 125 131 132 132 131 130 124 109 82 55 48 52 63 67 65 60 56 54 52 54 69 106 124 129 124 111 100 102 120 113 114 124 137 139 159 239 274 274 273 281 310 329 341 345 344 325 307 299 317 324 325 324 325 323 324 324 323 314 292 276
129 130 132 133 132 132 133 133 133 133 132 132 132 132 131 132 130 127 125 125 126 126 127 117 114 119 130 135 140 143 143 141 139 133 122 92 69 60 63 65 65 66 69 69 65 62 62 82 111 129 135 134 136 142 141 147 161 171 149 115 111 231 247 236 227 228 292 324 338 342 338 324 319 322 334 328 320 316 318 321 318 318 324 326 323 317
134 135 137 136 136 136 136 140 141 141 139 138 136 136 138 141 138 132 126 128 128 126 122 118 118 124 132 138 145 150 148 143 141 138 130 111 87 70 70 74 73 72 72 75 75 74 74 77 85 104 133 134 132 128 128 145 165 182 131 79 59 352 297 11 54 72 286 343 354 349 332 327 332 337 334 325 321 320 326 327 322 313 305 322 329 330
136 138 141 142 142 143 146 149 149 148 144 141 140 140 145 146 141 136 133 135 133 128 125 126 129 133 138 144 149 149 144 140 139 136 131 118 102 91 88 91 92 91 86 84 83 83 84 81 79 68 290 212 116 114 119 136 144 142 87 64 9 301 297 311 327 337 338 22 41 20 311 314 320 323 313 315 317 319 320 318 313 305 297 310 319 322
138 141 145 146 148 150 152 153 153 150 147 145 144 144 146 145 141 137 136 137 134 130 128 132 135 139 143 147 149 149 145 142 143 142 135 118 109 111 114 119 123 123 118 111 108 109 109 105 109 134 199 206 182 138 120 128 132 131 123 165 208 242 275 292 306 325 335 350 27 70 267 279 280 281 283 301 309 311 310 310 310 312 317 319 318 315
140 143 147 149 152 153 154 155 154 151 148 146 145 145 146 145 144 142 141 139 134 130 129 132 137 141 145 148 150 151 152 150 149 146 138 122 114 115 121 135 142 143 133 124 114 108 112 114 111 116 139 176 185 182 152 140 138 141 153 166 181 201 244 268 287 307 323 326 329 310 248 245 251 274 291 302 310 315 316 318 320 322 328 328 324 320